Amarillo, TX

1:24 AM CST on November 19, 2019 (GMT -0600)
Amarillo International

Weather History for KAMA - May, 2019

Change the Weather History Date:

Sunday, May 19, 2019

  Actual Average Record
Temperature  
Mean Temperature 60 °F 67 °F  
Max Temperature 76 °F 80 °F 99 °F (1996)
Min Temperature 43 °F 53 °F 33 °F (1971)
Degree Days  
Heating Degree Days 5 2  
Month to date heating degree days 95 66  
Since 1 July heating degree days 4078 4154  
Cooling Degree Days 0 4  
Month to date cooling degree days 28 45  
Year to date cooling degree days 44 66  
Growing Degree Days 9 (Base 50)    
Moisture  
Dew Point 41 °F    
Average Humidity 54    
Maximum Humidity 82    
Minimum Humidity 25    
Precipitation  
Precipitation 0.00 in 0.07 in 1.18 in (1901)
Month to date precipitation 1.35 1.15  
Year to date precipitation 5.44 5.22  
Snow  
Snow 0.00 in 0.00 in T in (1950)
Month to date snowfall 0.0 0.2  
Since 1 July snowfall 8.1 17.8  
Snow Depth 0.00 in    
Sea Level Pressure  
Sea Level Pressure 29.83 in    
Wind  
Wind Speed 13 mph (East)    
Max Wind Speed 25 mph    
Max Gust Speed 31 mph    
Visibility 10 miles    
Events      
T = Trace of Precipitation, MM = Missing Value Source: NWS Daily Summary

Daily Weather History Graph

Daily Weather History Graph

Search for Another Location

Airport or City:

Astronomy

May. 19, 2019 Rise Set
Actual Time 6:40 AM CDT 8:47 PM CDT
Civil Twilight 6:11 AM CDT 9:15 PM CDT
Nautical Twilight 5:36 AM CDT 9:50 PM CDT
Astronomical Twilight 4:59 AM CDT 10:27 PM CDT
Moon 9:49 PM CDT 7:25 AM CDT
Length of Visible Light 15h 03m
Length of Day
14h 06m
Full, 99% of the Moon is Illuminated
May 19
Full
May 26
Last Quarter
Jun 3
New
Jun 10
First Quarter
Jun 17
Full

Hourly Weather History & Observations

Time (CDT) Temp. Windchill Dew Point Humidity Pressure Visibility Wind Dir Wind Speed Gust Speed Precip Events Conditions
12:53 AM 52.0 °F - 37.0 °F 57% 29.75 in 10.0 mi North 10.4 mph - N/A   Clear
1:53 AM 50.0 °F - 37.9 °F 63% 29.78 in 10.0 mi North 11.5 mph - N/A   Clear
2:53 AM 46.9 °F - 37.9 °F 71% 29.80 in 10.0 mi North 6.9 mph - N/A   Clear
3:53 AM 45.0 °F 41.2 °F 37.9 °F 76% 29.81 in 10.0 mi North 6.9 mph - N/A   Clear
4:53 AM 46.0 °F 44.8 °F 37.9 °F 73% 29.82 in 10.0 mi NW 3.5 mph - N/A   Clear
5:53 AM 46.0 °F 42.5 °F 39.0 °F 76% 29.84 in 10.0 mi NNW 6.9 mph - N/A   Clear
6:53 AM 43.0 °F 38.2 °F 37.9 °F 82% 29.86 in 10.0 mi North 8.1 mph - N/A   Clear
7:53 AM 50.0 °F - 42.1 °F 74% 29.86 in 10.0 mi North 6.9 mph - N/A   Clear
8:53 AM 54.0 °F - 43.0 °F 66% 29.88 in 10.0 mi North 10.4 mph - N/A   Clear
9:53 AM 57.9 °F - 43.0 °F 58% 29.92 in 10.0 mi North 10.4 mph - N/A   Clear
10:53 AM 61.0 °F - 43.0 °F 52% 29.92 in 10.0 mi ENE 5.8 mph - N/A   Clear
11:53 AM 64.0 °F - 44.1 °F 48% 29.93 in 10.0 mi East 8.1 mph - N/A   Clear
12:53 PM 68.0 °F - 43.0 °F 40% 29.93 in 10.0 mi South 12.7 mph - N/A   Clear
1:53 PM 70.0 °F - 41.0 °F 35% 29.90 in 10.0 mi SE 15.0 mph 23.0 mph N/A   Clear
2:53 PM 72.0 °F - 39.9 °F 31% 29.89 in 10.0 mi South 8.1 mph 20.7 mph N/A   Clear
3:53 PM 75.0 °F - 39.0 °F 27% 29.84 in 10.0 mi SE 12.7 mph - N/A   Clear
4:53 PM 75.9 °F - 37.9 °F 25% 29.80 in 10.0 mi SSE 19.6 mph 26.5 mph N/A   Clear
5:53 PM 75.0 °F - 39.0 °F 27% 29.78 in 10.0 mi SE 20.7 mph - N/A   Clear
6:53 PM 73.9 °F - 39.0 °F 28% 29.78 in 10.0 mi SSE 19.6 mph 26.5 mph N/A   Clear
7:53 PM 71.1 °F - 39.9 °F 32% 29.77 in 10.0 mi SE 19.6 mph 28.8 mph N/A   Clear
8:53 PM 66.9 °F - 42.1 °F 40% 29.77 in 10.0 mi SE 16.1 mph - N/A   Clear
9:53 PM 64.0 °F - 44.1 °F 48% 29.78 in 10.0 mi SE 19.6 mph - N/A   Clear
10:53 PM 62.1 °F - 46.9 °F 58% 29.79 in 10.0 mi SE 19.6 mph - N/A   Clear
11:53 PM 59.0 °F - 48.9 °F 69% 29.80 in 10.0 mi SE 17.3 mph - N/A   Clear